Regional Weather Roundup
Issued by NWS

Home | Current Version | Previous Version | Graphics & Text | Print | Product List | Glossary On
Versions: 1 2 3 4 5 6 7 8 9 10 11 12 13 14 15 16 17 18 19 20 21 22 23 24 25 26 27 28 29 30 31 32 33 34 35 36 37 38 39 40 41 42 43 44 45 46 47 48 49 50
000
ASUS43 KDMX 231007
RWRIA

WEATHER ROUNDUP FOR IOWA
NATIONAL WEATHER SERVICE DES MOINES IA
500 AM CDT SAT MAY 23 2015

NOTE: "FAIR" INDICATES FEW OR NO CLOUDS BELOW 12,000 FEET WITH NO
SIGNIFICANT WEATHER AND/OR OBSTRUCTIONS TO VISIBILITY.

* - THESE STATIONS ARE NOT NWS STATIONS...THUS NOT UNDER NWS
QUALITY CONTROL.  THEY ALSO DO NOT REPORT WEATHER SUCH
AS PRECIPITATION OR FOG.

IAZ001>003-012>014-020>022-031>034-043>046-231100-
   NORTHWEST IOWA

CITY           SKY/WX    TMP DP  RH WIND       PRES   REMARKS
CARROLL *      CLOUDY    57  48  72 SE3       30.23R
CHEROKEE *     CLOUDY    55  50  82 CALM      30.22S
DENISON *      CLOUDY    55  52  88 SE6       30.20S
LE MARS *      CLOUDY    55  52  88 CALM      30.21S
ORANGE CITY *  CLOUDY    54  48  82 SE3       30.21S
SHELDON *      LGT RAIN  55  55 100 S6        30.21R
SIOUX CITY     CLOUDY    55  50  83 SE7       30.20R
SPENCER        CLOUDY    55  50  83 SE6       30.22S
STORM LAKE *   CLOUDY    55  48  76 SE6       30.23S
$$

IAZ055>058-069>071-079>083-090>094-231100-
   SOUTHWEST IOWA

CITY           SKY/WX    TMP DP  RH WIND       PRES   REMARKS
ATLANTIC *     CLOUDY    55  50  82 CALM      30.22S
AUDUBON *      CLOUDY    54  48  82 CALM      30.23S
CLARINDA *     CLOUDY    55  50  82 CALM      30.23S
COUNCIL BLFS * CLOUDY    55  54  94 CALM      30.21R
CRESTON *      CLOUDY    55  54  94 CALM      30.23S
HARLAN  *      CLOUDY    55  55 100 CALM      30.25S
LAMONI         CLOUDY    58  52  80 E5        30.23F
RED OAK *      CLOUDY    57  50  77 SE6       30.21S
SHENANDOAH *   CLOUDY    57  52  82 E6        30.22R
$$

IAZ047>049-059>061-072>074-084-231100-
   CENTRAL IOWA

CITY           SKY/WX    TMP DP  RH WIND       PRES   REMARKS
AMES           MOCLDY    54  49  83 CALM      30.25R
ANKENY *       MOCLDY    52  52 100 CALM      30.25R
CHARITON *     CLOUDY    52  50  93 SE6       30.25S
DES MOINES     CLOUDY    58  48  69 SE6       30.24S
GRINNELL*      MOCLDY    55  48  76 CALM      30.27R
KNOXVILLE *    MOCLDY    54  48  82 SE3       30.24S
MARSHALLTOWN   CLOUDY    55  49  80 SE3       30.25R
PELLA *        MOCLDY    52  52 100 CALM      30.27R
PERRY *        CLOUDY    55  50  82 CALM      30.24R
$$

IAZ004>006-015-016-023>025-035-036-231100-
   NORTH CENTRAL IOWA

CITY           SKY/WX    TMP DP  RH WIND       PRES   REMARKS
ALGONA *       DRIZZLE   55  52  88 NW6       30.25R
CLARION *      CLOUDY    57  50  77 CALM      30.25R
ESTHERVILLE    CLOUDY    54  49  83 E6        30.23S
FORT DODGE *   CLOUDY    55  46  71 SE5       30.25R
MASON CITY     CLOUDY    55  46  71 NE3       30.25S
FOREST CITY *  CLOUDY    54  45  71 CALM      30.24S
IOWA FALLS *   CLOUDY    57  48  72 CALM      30.26R
$$

IAZ007>011-017>019-026>030-037>042-050>054-066-231100-
   NORTHEAST IOWA

CITY           SKY/WX    TMP DP  RH WIND       PRES   REMARKS
CEDAR RAPIDS   PTCLDY    55  50  83 CALM      30.25R
CHARLES CITY * CLOUDY    55  46  71 W3        30.25S
CLINTON *      MOCLDY    55  39  54 SE10      30.29S
DECORAH *      PTCLDY    54  45  71 S5        30.24R
DUBUQUE        PTCLDY    54  39  57 S5        30.28R
MONTICELLO *   CLOUDY    55  45  67 E6        30.26S
OELWEIN *      MOCLDY    50  46  87 E6        30.26R
WATERLOO       MOCLDY    55  47  74 CALM      30.24S
$$

IAZ064-065-067-068-078-231100-
   EAST CENTRAL IOWA

CITY           SKY/WX    TMP DP  RH WIND       PRES   REMARKS
DAVENPORT      PTCLDY    58  42  55 SE10      30.27R
IOWA CITY      PTCLDY    55  50  83 CALM      30.27R
MT. PLEASANT * CLEAR     50  50 100 S5        30.27R
MUSCATINE *    CLEAR     55  52  88 CALM      30.27R
QUAD CITIES    CLOUDY    53  44  71 E3        30.27R
$$

IAZ062-063-075>077-085>089-095>099-231100-
   SOUTHEAST IOWA

CITY           SKY/WX    TMP DP  RH WIND       PRES   REMARKS
BURLINGTON     CLOUDY    56  54  93 CALM      30.27R
FAIRFIELD *    CLEAR     52  48  87 CALM      30.27R
FORT MADISON * MOCLDY    55  54  94 CALM      30.28R
KEOKUK *       MOCLDY    50  50 100 CALM      30.27R
OSKALOOSA *      N/A     52  48  87 CALM      30.27R
CENTERVILLE *  MOCLDY    50  50 100 E5        30.27S
OTTUMWA        PTCLDY    51  48  89 S3        30.26R
WASHINGTON *   CLEAR     54  50  87 CALM      30.28R
$$

ABBREVIATIONS USED IN REMARKS
   TC - TEMPERATURES IN CELSIUS
  WCI - WIND CHILL INDEX
   HX - HEAT INDEX
  VSB - VISIBILITY
$$



USA.gov is the U.S. government's official web portal to all federal, state and local government web resources and services.